Portada
METAR-TAF:

METAR-TAF

Aeropuertos :

Marshall County Airport

Lacon, Illinois, Estados Unidos

latitud: 41-01-09N, longitud: 089-23-11W, altitud: 173 m

Observación

El informe se hizo hace 27 minutos, a las 07:55 UTC
Viento calma
Temperatura 20°C
Humedad 94%
Presión 1015 hPa
Visibilidad: 16.1 km
Cielo despejado

METAR: KC75 060755Z AUTO 00000KT 10SM CLR 20/19 A2997 RMK AO2 T01980192

Hora: 03:22 (08:22 UTC)


TAF: falta

Observaciones y pronósticos meteorológicos de más de 4000 aeropuertos (mensajes METAR y TAF).

Los puntos amarillos y rojos representan las estaciones disponibles.

Ponga el ratón en el punto deseado para ver el nombre de la estación.

Haga clic para ver las observaciones y los pronósticos meteorológicos.

Para cambiar el mapa : haga clic en los botones verdes con una cruz de color negro para hacer un zoom, en el botón verde con un guión para alejar o en las flechas verdes para mapas adyacentes.


METAR-TAF: